This is the latest recevied weather packets stored in our database for station/object VE3DVC. If no packets are shown the sender has not sent any weather packets the latest 10 day(s).
| Time | Temp. | Humidity | Pressure | Rain* | Wind** | Luminosity | Snow |
|---|---|---|---|---|---|---|---|
| 1788643567 | 22.22° C | 80% | 1014.4 hPa | 0 mm | - | - | - |
| 1788642847 | 22.22° C | 85% | 1014.5 hPa | 0 mm | - | - | - |
| 1788642127 | 22.78° C | 82% | 1014.3 hPa | 0 mm | - | - | - |
| 1788641408 | 22.78° C | 81% | 1014.4 hPa | 0 mm | - | - | - |
| 1788640686 | 23.33° C | 78% | 1014.4 hPa | 0 mm | - | - | - |
| 1788639696 | 23.33° C | 78% | 1014.3 hPa | 0 mm | - | - | - |
| 1788638976 | 23.89° C | 77% | 1014.3 hPa | 0 mm | - | - | - |
| 1788637811 | 23.89° C | 72% | 1014.6 hPa | 0 mm | - | - | - |
| 1788637091 | 24.44° C | 75% | 1014.6 hPa | 0 mm | - | - | - |
| 1788636371 | 24.44° C | 75% | 1014.5 hPa | 0 mm | - | - | - |
| 1788635651 | 24.44° C | 74% | 1014.6 hPa | 0 mm | - | - | - |
| 1788634932 | 24.44° C | 77% | 1014.8 hPa | 0 mm | - | - | - |
| 1788634210 | 23.89° C | 77% | 1015 hPa | 0 mm | - | - | - |
| 1788633491 | 23.89° C | 69% | 1015 hPa | 0 mm | - | - | - |
| 1788632771 | 24.44° C | 70% | 1015 hPa | 0 mm | - | - | - |
| 1788631448 | 23.89° C | 70% | 1015.2 hPa | 0 mm | - | - | - |
| 1788630696 | 23.33° C | 68% | 1015.1 hPa | 0 mm | - | - | - |
| 1788628600 | 22.22° C | 77% | 1015.2 hPa | 0 mm | - | - | - |
| 1788627880 | 22.22° C | 74% | 1015.4 hPa | 0 mm | - | - | - |
| 1788627162 | 22.22° C | 76% | 1015.3 hPa | 0 mm | - | - | - |
| 1788626441 | 22.22° C | 72% | 1015.3 hPa | 0 mm | - | - | - |
| 1788625721 | 22.22° C | 74% | 1015.3 hPa | 0 mm | - | - | - |
| 1788625001 | 22.22° C | 77% | 1015.3 hPa | 0 mm | - | - | - |
| 1788624280 | 21.67° C | 77% | 1015.3 hPa | 0 mm | - | - | - |
| 1788623561 | 21.67° C | 81% | 1015.3 hPa | 0 mm | - | - | - |
* Rain latest hour (hover to see other rain measurements)
** Current wind speed in m/s (hover to see current wind gust speed)